Flag for Jordan Weather past 2 weeks in Amman, Jordan

Now
50 °F

Haze.


Feels Like: 48 °F
Forecast: 46 / 62 °F
Wind: 6 mph from West

Location: Amman Airport

Current Time: Mar 31, 2015 at 2:40:15 AM

Latest Report: Mar 31, 2015 at 2:00 AM


Visibility: 3 mi

Pressure: 30.01 "Hg

Humidity: 62%

Dew point: 37 °F

Location of AmmanLocation

Historic Weather in Amman — Graph

°F

Amman temperature yesterday

Maximum temperature yesterday: 63 °F (at 1:00 PM)
Minimum temperature yesterday: 52 °F (at 1:00 AM)
Average temperature yesterday: 56 °F

Past Weeks' High & Low Weather Summary

 TemperatureHumidityPressure
High77 °F (Mar 27, 4:00 PM)93% (Mar 23, 4:00 AM)30.15 "Hg (Mar 23, 4:00 AM)
Low39 °F (Mar 23, 5:00 AM)13% (Mar 24, 10:00 AM)29.83 "Hg (Mar 29, 2:00 PM)
Average56 °F55%30.02 "Hg
* Reported Midnight between Mar 15 and Mar 16 — Mar 31 1:00 AM, Amman, Weather by CustomWeather, © 2015

Note: Actual official high and low records may vary slightly from our data, if they occured in-between our weather recording intervals... More about our weather records

Advertising

Amman weather history for previous 24 hours

 ConditionsComfort  
Time TempWeatherWind HumidityBarometerVisibility
1:00 AM
Tue, Mar 31
52 °FHaze.9 mph58%30.01 "Hg3 mi
12:00 AM50 °FHaze.10 mph71%30.01 "Hg3 mi
11:00 PM
Mon, Mar 30
52 °FHaze.10 mph67%30.01 "Hg3 mi
10:00 PM52 °FHaze.10 mph67%29.98 "Hg3 mi
9:00 PM54 °FHaze.10 mph63%30.04 "Hg3 mi
7:00 PM55 °FPassing clouds.13 mph63%30.01 "Hg3 mi
6:00 PM61 °FScattered clouds.17 mph48%29.98 "Hg3 mi
5:00 PM63 °FScattered clouds.22 mph45%29.98 "Hg3 mi
3:00 PM63 °FHaze.14 mph49%29.98 "Hg3 mi
2:00 PM63 °FScattered clouds.18 mph45%29.98 "Hg3 mi
1:00 PM63 °FPartly sunny.20 mph45%29.98 "Hg3 mi
12:00 PM61 °FScattered clouds.17 mph45%30.01 "Hg3 mi
11:00 AM61 °FScattered clouds.17 mph48%30.01 "Hg3 mi
10:00 AM59 °FScattered clouds.10 mph59%29.98 "Hg3 mi
9:00 AM55 °FHaze.10 mph67%29.98 "Hg3 mi
8:00 AM54 °FHaze.12 mph77%29.95 "Hg3 mi
7:00 AM54 °FHaze.7 mph67%29.95 "Hg3 mi
6:00 AM52 °FHaze.7 mph67%29.92 "Hg3 mi
5:00 AM54 °FHaze.7 mph58%29.92 "Hg3 mi
4:00 AM52 °FHaze.7 mph62%29.92 "Hg3 mi
3:00 AM54 °FHaze.5 mph63%29.92 "Hg3 mi
2:00 AM52 °FHaze.No wind77%29.92 "Hg3 mi
Weather by CustomWeather, © 2015

See weather overviewHow to use our weather pages